Theta_e
321 320 320 323 323 322 322 322 321 320 319 319 318 318 319 319 320 321 321 322 323 323 322 322 321 321 321 319 319 319 319 319 319 319 319 319 319 320 320 319 320 322
321 320 321 322 322 321 321 320 320 319 318 317 315 317 319 319 319 320 321 322 323 323 322 321 320 320 320 319 318 318 318 318 318 318 317 317 317 318 318 318 319 320
320 321 322 322 321 321 319 319 318 318 317 316 314 316 318 319 320 320 320 321 322 322 321 321 319 319 318 318 317 316 316 315 316 317 316 315 315 316 316 317 317 317
320 321 322 321 321 320 319 318 318 317 316 315 314 315 316 318 319 320 320 321 321 320 320 320 319 318 317 316 316 315 314 314 315 315 315 315 314 314 315 316 316 316
318 320 321 322 321 319 318 317 317 316 315 315 314 314 316 318 319 319 319 320 320 319 318 318 318 317 317 316 314 314 313 313 313 314 314 314 314 313 314 315 315 315
318 319 321 322 321 319 317 317 316 316 315 315 314 314 316 317 318 319 319 319 319 318 317 317 316 314 315 315 314 313 313 313 313 313 314 314 314 313 314 314 314 313
320 320 321 321 320 318 317 316 315 315 315 314 313 314 316 316 316 317 318 318 318 317 315 315 314 312 312 313 313 312 312 313 313 313 313 313 313 313 313 313 313 312
321 321 321 321 319 317 316 316 315 315 314 314 313 313 315 316 315 316 317 317 316 316 315 314 313 311 311 311 312 312 312 312 312 313 313 313 313 313 312 312 312 311
320 320 320 320 318 316 316 315 315 314 314 314 313 313 315 315 314 315 316 315 315 314 313 312 312 311 311 311 311 311 311 310 310 311 312 313 313 312 311 311 311 310
319 320 320 319 317 316 315 315 314 314 314 314 313 313 315 315 314 315 315 314 313 312 310 309 310 311 311 310 310 310 309 309 309 308 307 309 311 311 311 310 310 310
319 320 319 318 316 316 315 315 314 313 313 314 312 312 314 314 314 314 314 312 311 310 309 308 308 310 310 310 309 309 308 308 305 302 301 303 306 309 310 310 309 308
319 319 319 317 316 316 315 315 314 313 313 314 312 312 313 313 313 312 312 311 310 309 309 308 308 309 310 310 308 308 307 305 300 297 297 300 303 306 308 309 309 308
317 318 319 318 317 316 315 315 315 314 313 313 312 311 313 313 312 311 310 309 309 309 309 309 309 308 309 309 307 307 306 300 294 293 295 296 298 301 303 305 306 306
317 318 319 318 317 316 315 314 314 314 313 313 311 311 313 313 312 310 309 309 309 308 308 309 309 309 309 308 307 307 304 297 292 293 293 292 293 295 296 298 300 302
317 318 319 318 317 316 315 314 314 314 314 312 311 310 312 312 310 309 309 308 308 308 308 308 309 309 309 308 307 306 301 294 292 292 292 292 292 292 292 293 294 296
318 318 319 318 317 316 315 315 314 314 313 311 310 311 313 312 310 309 309 309 308 308 308 308 308 308 309 308 307 306 300 294 292 292 292 292 293 294 295 295 294 293
318 318 318 318 317 316 315 315 314 314 313 310 309 312 313 311 310 310 309 309 308 308 308 308 309 308 308 307 306 305 301 295 292 292 292 293 296 298 299 300 299 296
319 318 318 318 317 316 316 316 314 313 312 310 309 311 312 312 311 310 309 308 308 308 306 307 308 308 308 307 305 305 303 299 295 295 294 293 296 300 301 301 302 300
319 318 318 318 318 316 316 316 314 313 312 310 309 311 312 312 310 310 309 308 309 308 304 304 308 308 307 307 305 304 304 303 302 301 300 298 298 299 301 301 302 302
319 318 318 318 318 317 316 316 314 313 313 310 309 310 312 311 310 309 309 308 309 307 301 303 307 307 306 307 305 305 305 304 304 304 303 302 300 299 301 302 302 302
320 319 318 318 318 317 317 316 314 313 312 310 309 309 311 311 310 309 309 308 310 307 301 302 307 306 306 306 305 305 305 304 304 304 302 301 300 299 300 302 302 302
320 319 318 318 318 317 316 316 314 313 312 311 309 308 310 311 310 310 309 308 310 307 300 301 306 305 305 306 305 304 304 303 304 304 302 301 299 299 300 302 302 301
320 319 318 318 318 317 316 316 314 314 312 311 309 308 309 311 310 310 310 309 310 308 300 299 304 306 304 305 305 303 303 303 303 303 302 301 301 300 301 301 301 300
320 319 319 318 318 317 317 316 315 314 313 311 310 309 309 310 310 310 310 309 310 309 302 297 300 305 304 304 304 303 303 303 303 302 302 301 300 300 300 299 299 297
320 320 319 318 318 318 317 317 316 314 314 312 310 309 308 308 310 311 310 309 309 310 306 298 296 302 304 303 303 304 303 302 302 301 301 301 301 300 299 299 298 296
320 320 319 319 318 318 317 317 316 315 314 312 310 309 308 308 310 311 310 310 309 309 309 303 296 298 303 303 303 303 302 301 300 300 300 300 301 300 299 299 297 295
Wind_Speed
10 8 7 10 10 10 10 11 10 8 6 5 3 5 6 3 2 3 2 3 5 6 6 7 6 5 6 5 4 6 7 8 8 8 6 6 8 9 10 9 9 9
11 9 9 11 11 10 10 10 10 8 7 5 2 6 7 2 2 4 3 4 5 5 7 7 5 5 7 6 5 7 7 6 7 6 6 6 7 8 9 10 11 11
12 10 11 13 10 10 10 10 10 9 7 4 1 5 6 3 3 5 4 4 5 7 8 7 5 6 7 6 5 6 7 6 6 6 7 8 8 7 8 9 11 11
13 11 11 12 9 10 11 11 12 9 7 4 0 2 4 3 4 6 5 5 7 8 7 5 6 6 6 5 5 6 8 8 8 8 10 11 10 9 9 9 11 11
14 13 12 11 10 11 12 12 12 9 7 4 1 1 3 4 6 7 7 8 8 8 7 6 7 6 5 5 6 8 9 10 9 9 11 13 12 11 10 10 11 11
14 13 13 12 11 13 14 13 11 9 8 5 2 2 5 6 7 7 8 9 8 8 8 8 8 6 5 5 7 9 9 10 10 9 11 13 12 11 10 11 12 12
15 13 14 14 12 13 15 13 11 9 8 6 3 3 5 7 7 7 8 9 8 8 8 8 7 7 7 7 9 9 10 10 10 9 11 12 12 11 11 11 12 13
16 14 15 15 13 14 14 13 11 9 7 6 4 3 6 7 7 7 7 8 9 9 9 8 8 8 8 8 8 9 9 10 9 9 10 10 11 11 11 11 11 12
17 15 16 16 15 14 13 11 11 8 6 6 5 6 7 6 7 7 7 7 9 9 8 7 8 9 9 9 8 8 8 8 7 8 8 8 9 10 10 11 11 12
18 16 16 17 16 15 12 11 10 8 6 5 5 7 8 6 7 8 6 7 9 9 8 7 7 9 9 9 8 8 7 6 4 4 4 6 8 9 9 10 10 11
18 16 17 17 16 14 12 11 10 8 8 6 5 8 8 7 8 7 6 9 11 10 8 8 7 8 8 9 9 8 7 5 3 3 5 7 8 9 9 9 10 10
19 18 18 18 16 14 12 11 11 10 9 7 7 8 9 9 7 6 8 13 12 9 8 9 9 8 8 8 9 8 6 6 6 9 11 11 11 11 10 10 10 10
21 19 19 18 16 15 12 11 11 10 9 8 8 9 10 9 7 7 12 14 11 9 8 9 10 10 9 8 9 7 6 8 11 15 16 17 16 15 13 12 11 11
22 21 20 18 17 16 14 13 12 11 10 9 9 10 10 8 8 11 14 13 11 10 9 10 11 11 10 9 9 8 7 11 15 17 19 20 20 19 18 16 15 13
23 21 20 19 18 16 15 14 13 12 12 11 10 11 11 9 10 13 13 12 11 10 10 10 11 11 10 10 10 9 9 13 16 17 19 21 22 22 21 20 19 18
23 22 21 20 19 18 16 14 14 14 14 13 12 11 12 12 13 13 11 11 10 9 10 11 11 11 11 11 10 10 11 14 16 17 19 20 21 22 21 21 20 19
25 23 22 22 21 19 17 16 15 15 15 15 14 12 13 15 15 13 11 10 9 9 9 10 12 13 11 11 12 10 11 14 16 17 18 18 19 20 19 19 18 18
26 25 24 24 23 21 20 18 17 17 17 16 15 14 14 16 16 14 13 12 10 9 9 12 14 14 12 12 13 12 11 13 14 14 14 14 15 17 17 16 15 16
28 26 26 25 25 23 21 20 19 20 19 17 17 16 14 14 16 16 15 14 11 9 10 14 16 15 13 13 13 13 12 12 12 11 10 10 12 14 14 13 13 13
29 29 28 27 26 24 23 22 21 21 20 17 18 19 16 14 16 17 16 14 12 8 10 16 17 16 15 14 14 14 13 13 12 11 10 9 10 13 13 11 11 11
31 30 29 28 27 25 25 23 22 22 21 18 18 20 19 16 16 17 16 14 12 9 11 17 18 16 16 16 14 14 14 14 14 13 12 11 11 12 12 10 9 9
33 32 31 30 29 27 27 25 24 24 22 20 19 21 21 19 17 17 17 15 12 10 13 18 19 17 17 16 15 14 14 15 16 15 14 12 12 12 11 10 9 7
34 33 32 31 30 30 29 27 27 26 24 22 21 22 23 21 19 19 18 17 14 12 14 18 21 19 17 17 17 16 15 16 16 16 15 13 13 12 11 11 9 7
34 34 33 32 32 32 31 29 28 28 27 24 24 24 24 23 21 20 19 18 15 13 14 17 21 21 19 19 19 18 17 16 16 15 14 13 13 13 12 10 8 7
35 34 34 33 33 33 32 32 31 30 29 27 26 25 25 24 23 21 21 20 17 15 13 16 20 22 22 20 20 19 17 16 16 15 15 14 13 13 12 10 7 8
35 36 36 35 35 35 34 33 32 32 31 29 28 27 25 24 24 23 22 21 19 17 15 15 18 23 24 22 21 20 18 17 17 16 16 15 14 13 12 11 9 10
Wind_Direction
203 206 194 181 178 176 173 170 169 166 157 149 164 176 162 133 125 145 127 133 134 123 122 121 111 112 124 120 97 100 112 112 104 102 106 104 99 101 102 99 101 108
204 208 195 182 179 178 177 175 174 174 163 151 178 196 184 162 147 163 151 150 151 135 128 123 107 106 126 128 100 102 114 110 106 111 112 106 101 102 98 97 103 108
203 202 191 187 185 180 178 175 172 172 162 149 190 205 191 172 155 160 154 155 146 132 130 127 117 111 120 125 108 102 105 99 109 122 117 108 101 101 100 101 108 107
203 196 190 193 195 191 188 179 169 164 157 149 108 205 191 183 166 153 143 148 137 128 130 131 132 124 116 123 120 113 106 101 113 123 117 112 108 107 109 111 113 108
205 199 194 195 196 193 190 181 170 163 160 161 131 160 159 155 167 154 132 136 138 133 133 132 132 126 118 128 128 124 119 112 118 123 117 117 115 113 115 119 118 110
202 199 196 198 199 194 187 180 173 167 166 168 148 156 150 139 155 158 142 142 145 142 138 131 125 117 121 139 135 129 128 124 127 126 118 117 120 120 118 120 119 112
200 200 198 199 199 191 184 179 174 167 166 169 150 160 171 157 154 156 154 158 156 148 141 130 121 117 124 140 135 128 127 127 132 134 125 120 123 123 120 119 117 112
202 200 196 199 197 188 184 180 177 172 166 166 160 161 166 166 168 165 162 163 155 147 140 131 123 122 128 139 138 130 128 128 132 135 130 126 126 123 120 121 120 113
203 200 198 202 200 194 191 185 183 185 173 160 168 181 171 163 175 176 169 164 156 146 139 131 127 128 133 140 141 137 132 127 129 132 133 135 131 125 123 126 126 118
204 207 206 204 201 198 198 193 191 197 189 172 179 191 185 175 182 187 186 174 161 148 136 127 129 134 138 139 138 139 135 125 120 130 146 155 149 137 131 131 131 123
207 209 206 203 201 200 199 197 197 200 197 193 202 200 185 173 184 203 202 176 161 150 138 127 130 139 141 139 136 134 126 110 102 115 128 143 149 147 141 137 135 127
208 206 205 205 206 203 200 197 194 196 196 195 209 206 186 179 196 207 185 169 158 152 145 134 135 142 141 139 136 130 113 97 106 113 111 116 125 133 137 137 136 130
208 208 209 212 213 210 208 203 195 199 203 198 201 198 187 194 212 193 173 167 161 156 154 145 141 144 147 145 138 125 107 110 118 116 110 109 111 115 121 125 128 129
211 212 215 218 219 217 217 213 207 209 211 207 206 198 190 197 199 181 171 169 167 162 161 156 149 149 156 156 144 125 114 125 127 120 113 109 106 105 106 107 110 113
213 213 216 221 220 218 219 217 213 211 208 208 205 196 193 193 186 180 175 171 169 166 167 168 162 159 165 165 152 132 124 132 132 124 118 113 108 103 100 98 97 98
214 213 215 219 220 219 219 217 215 212 205 201 194 191 200 199 187 186 187 184 180 176 175 176 172 169 172 173 164 143 132 138 136 128 123 119 113 107 101 95 92 90
212 213 214 218 220 220 219 218 218 213 203 198 195 196 206 205 197 197 199 198 197 193 190 185 177 171 172 172 167 153 141 143 141 133 127 124 119 112 106 100 94 90
210 212 213 216 219 219 219 219 218 211 205 205 202 199 203 207 208 208 203 200 204 205 202 193 181 174 174 174 170 162 151 148 147 140 134 131 124 118 114 110 104 100
208 211 212 215 217 218 218 218 217 212 210 212 207 202 206 212 210 206 201 201 205 211 204 191 181 176 175 175 173 168 162 157 155 151 145 141 136 131 127 122 116 112
207 209 211 213 216 216 216 217 217 215 214 216 209 205 210 215 206 201 201 201 204 213 200 186 181 177 175 175 175 174 173 171 166 159 152 149 147 146 141 134 129 126
206 208 209 211 212 214 215 217 218 216 215 216 212 208 213 217 209 203 203 201 203 214 200 186 182 178 177 180 182 180 180 180 175 167 158 153 153 154 153 147 145 140
206 206 207 208 209 211 214 217 219 217 217 218 214 210 214 219 215 209 207 204 204 212 203 191 185 181 179 183 183 179 177 177 177 174 168 163 162 165 167 166 163 157
205 206 206 206 207 209 212 217 220 219 219 220 215 210 212 218 217 212 210 209 208 210 206 196 189 184 182 182 180 177 173 171 172 173 170 169 171 172 175 175 173 174
205 206 206 206 207 209 212 217 220 221 221 220 217 213 213 217 219 215 211 213 215 213 209 201 194 188 185 184 182 181 182 181 177 174 171 170 172 172 173 175 175 179
205 206 207 207 209 211 213 216 220 221 221 220 219 217 216 217 219 218 214 214 215 215 211 206 199 192 188 188 187 187 192 194 190 187 182 179 180 180 179 182 185 181
206 207 209 210 211 212 213 216 220 220 219 218 218 218 218 217 218 220 219 216 213 213 212 210 205 198 193 191 192 192 195 197 195 193 189 187 190 194 192 191 190 185